Waarnemingen

Advertentie
Mijn weer
Torino/Caselle, Italië (16059): temperatuur & dauwpunt: 10.07.2018 01:00:00 - 16.07.2018 01:00:00 (CEST)Torino/Caselle, Italië (16059): windsnelheid: 10.07.2018 01:00:00 - 16.07.2018 01:00:00 (CEST)Torino/Caselle, Italië (16059): windrichting: 10.07.2018 01:00:00 - 16.07.2018 01:00:00 (CEST)Torino/Caselle, Italië (16059): luchtdruk: 10.07.2018 01:00:00 - 16.07.2018 01:00:00 (CEST)Torino/Caselle, Italië (16059): zicht: 10.07.2018 01:00:00 - 16.07.2018 01:00:00 (CEST)Torino/Caselle, Italië (16059): neerslag: 10.07.2018 01:00:00 - 16.07.2018 01:00:00 (CEST)
Datum & Tijd tt [°C] td [°C] ff [km/u] ff [kn] dd ppp [hPa] vv [km] rr [mm]
16.07.2018 01:00:00 - - - - - - - -
16.07.2018 00:00:00 22,0 16,0 8 4 W - 10 -
15.07.2018 23:00:00 20,9 16,4 9 5 O 1013,7 10 0,0
15.07.2018 22:00:00 23,0 16,0 4 2 - - 10 -
15.07.2018 21:00:00 25,0 18,0 9 5 NW - 8 -
15.07.2018 20:00:00 26,3 18,7 4 2 - 1012,8 10 -
15.07.2018 19:00:00 28,0 18,0 8 4 O - 10 -
15.07.2018 18:00:00 28,0 17,0 5 3 - - 10 -
15.07.2018 17:00:00 28,1 17,4 8 4 O 1013,4 10 0,0
15.07.2018 16:00:00 27,0 17,0 2 1 - - 10 -
15.07.2018 15:00:00 27,0 18,0 5 3 N - 10 -
15.07.2018 14:00:00 26,1 16,2 8 4 ONO 1015,2 10 -
15.07.2018 13:00:00 24,0 18,0 8 4 O - 10 -
15.07.2018 12:00:00 24,0 18,0 4 2 - - 10 -
15.07.2018 11:00:00 23,5 17,8 2 1 - 1016,5 10 0,0
15.07.2018 10:00:00 23,0 17,0 2 1 - - 10 -
15.07.2018 09:00:00 21,0 17,0 8 4 ONO - 10 -
15.07.2018 08:00:00 20,2 17,3 5 3 ONO 1016,3 10 -
15.07.2018 07:00:00 18,0 17,0 4 2 - - 10 -
15.07.2018 06:00:00 20,0 16,0 8 4 WNW - 10 -
15.07.2018 05:00:00 19,3 17,0 9 5 W 1016,1 10 0,0
15.07.2018 04:00:00 20,0 18,0 8 4 WZW - 10 -
15.07.2018 03:00:00 21,0 19,0 2 1 - - 10 -
15.07.2018 02:00:00 21,3 18,5 5 3 WNW 1017,2 10 -
15.07.2018 01:00:00 21,0 20,0 5 3 N - 10 -
15.07.2018 00:00:00 22,0 20,0 5 3 ONO - 10 -
14.07.2018 23:00:00 22,3 19,5 5 3 W 1017,1 10 0,0
14.07.2018 22:00:00 23,0 20,0 8 4 ZW - 10 -
14.07.2018 21:00:00 24,0 20,0 5 3 Z - 10 -
14.07.2018 20:00:00 24,6 20,6 5 3 NNW 1016,1 10 -
14.07.2018 19:00:00 24,0 19,0 8 4 NNW - 10 -
14.07.2018 18:00:00 22,0 19,0 5 3 ONO - 8 -
14.07.2018 17:00:00 23,9 19,5 15 8 N 1016,6 10 0,0
14.07.2018 16:00:00 22,0 20,0 16 9 - - 1,1 -
14.07.2018 15:00:00 29,0 19,0 9 5 - - 10 -
14.07.2018 14:00:00 28,4 18,2 8 4 ZZO 1017,4 10 -
14.07.2018 13:00:00 27,0 18,0 8 4 OZO - 10 -
14.07.2018 12:00:00 27,0 19,0 5 3 O - 10 -
14.07.2018 11:00:00 26,0 19,1 9 5 ONO 1019,2 10 0,0
14.07.2018 10:00:00 25,0 18,0 9 5 ONO - 10 -
14.07.2018 09:00:00 23,0 19,0 5 3 NO - 10 -
14.07.2018 08:00:00 24,2 17,3 9 5 NW 1019,3 10 -
14.07.2018 07:00:00 22,0 17,0 9 5 NW - 10 -
14.07.2018 06:00:00 21,0 19,0 5 3 ONO - 10 -
14.07.2018 05:00:00 22,0 17,9 5 3 - 1018,6 10 0,0
14.07.2018 04:00:00 22,0 18,0 8 4 N - 10 -
14.07.2018 03:00:00 22,0 19,0 2 1 - - 10 -
14.07.2018 02:00:00 21,5 19,0 4 2 - 1018,2 10 -
14.07.2018 01:00:00 23,0 18,0 9 5 N - 10 -
14.07.2018 00:00:00 23,0 18,0 8 4 NNW - 10 -
13.07.2018 23:00:00 23,4 18,5 9 5 N 1017,7 13 0,0
13.07.2018 22:00:00 26,0 19,0 5 3 NNW - 10 -
13.07.2018 21:00:00 28,0 18,0 4 2 - - 10 -
13.07.2018 20:00:00 28,9 17,8 4 2 - 1016,7 10 -
13.07.2018 19:00:00 29,0 17,0 5 3 O - 10 -
13.07.2018 18:00:00 28,0 17,0 5 3 O - 10 -
13.07.2018 17:00:00 28,2 16,3 8 4 ZO 1017,0 10 0,0
13.07.2018 16:00:00 29,0 16,0 5 3 - - 10 -
13.07.2018 15:00:00 28,0 16,0 4 2 - - 10 -
13.07.2018 14:00:00 27,8 17,7 8 4 O 1018,1 10 -
13.07.2018 13:00:00 26,0 18,0 5 3 OZO - 10 -
13.07.2018 12:00:00 26,0 18,0 5 3 - - 10 -
13.07.2018 11:00:00 25,1 17,5 4 2 - 1018,8 10 0,0
13.07.2018 10:00:00 23,0 18,0 4 2 - - 10 -
13.07.2018 09:00:00 21,0 19,0 4 2 - - 10 -
13.07.2018 08:00:00 21,1 18,3 5 3 N 1018,2 10 -
13.07.2018 07:00:00 19,0 17,0 5 3 WNW - 10 -
13.07.2018 06:00:00 19,0 17,0 5 3 W - 10 -
13.07.2018 05:00:00 19,1 17,4 5 3 WZW 1017,6 10 0,0
13.07.2018 04:00:00 19,0 17,0 5 3 NNW - 10 -
13.07.2018 03:00:00 19,0 17,0 11 6 WNW - 10 -
13.07.2018 02:00:00 18,3 17,7 9 5 N 1017,0 7 -
13.07.2018 01:00:00 18,0 18,0 5 3 N - 7 -
13.07.2018 00:00:00 18,0 18,0 5 3 O - 10 -
12.07.2018 23:00:00 19,2 18,0 4 2 - 1016,7 10 0,0
12.07.2018 22:00:00 20,0 18,0 13 7 N - 10 -
12.07.2018 21:00:00 20,0 17,0 21 11 NW - 7 -
12.07.2018 20:00:00 19,5 18,0 15 8 WNW 1015,7 6 -
12.07.2018 19:00:00 22,0 20,0 18 10 ZO - 4,0 -
12.07.2018 18:00:00 26,0 19,0 15 8 NO - 10 -
12.07.2018 17:00:00 25,9 18,9 11 6 ONO 1014,8 10 0,0
12.07.2018 16:00:00 26,0 19,0 13 7 ONO - 10 -
12.07.2018 15:00:00 26,0 18,0 9 5 O - 10 -
12.07.2018 14:00:00 25,4 17,7 9 5 O 1015,5 10 -
12.07.2018 13:00:00 26,0 18,0 13 7 O - 8 -
12.07.2018 12:00:00 24,0 18,0 11 6 ONO - 8 -
12.07.2018 11:00:00 23,5 18,3 11 6 O 1015,6 5 0,0
12.07.2018 10:00:00 22,0 19,0 9 5 O - 4,2 -
12.07.2018 09:00:00 21,0 19,0 9 5 ONO - 3,5 -
12.07.2018 08:00:00 20,5 18,9 5 3 NO 1015,2 2,4 -
12.07.2018 07:00:00 20,0 19,0 8 4 NO - 2,5 -
12.07.2018 06:00:00 20,0 19,0 8 4 NO - 3,0 -
12.07.2018 05:00:00 20,2 19,0 9 5 ONO 1014,4 6 0,0
12.07.2018 04:00:00 21,0 19,0 9 5 NNO - 10 -
12.07.2018 03:00:00 21,0 19,0 9 5 ONO - 10 -
12.07.2018 02:00:00 21,1 19,0 9 5 NNO 1014,4 10 -
12.07.2018 01:00:00 22,0 19,0 8 4 NNO - 10 -
12.07.2018 00:00:00 22,0 19,0 8 4 N - 10 -
11.07.2018 23:00:00 21,9 18,6 8 4 NNO 1013,6 10 0,0
11.07.2018 22:00:00 22,0 18,0 8 4 ONO - 10 -
11.07.2018 21:00:00 23,0 18,0 8 4 ONO - 10 -
11.07.2018 20:00:00 24,4 17,6 8 4 ONO 1011,9 10 -
11.07.2018 19:00:00 25,0 17,0 9 5 O - 10 -
11.07.2018 18:00:00 25,0 17,0 9 5 O - 10 -
11.07.2018 17:00:00 25,4 16,5 11 6 ONO 1011,7 10 0,0
11.07.2018 16:00:00 25,0 17,0 11 6 ONO - 10 -
11.07.2018 15:00:00 24,0 18,0 16 9 O - 10 -
11.07.2018 14:00:00 24,4 17,6 15 8 O 1012,4 10 -
11.07.2018 13:00:00 23,0 18,0 15 8 O - 10 -
11.07.2018 12:00:00 23,0 18,0 15 8 O - 10 -
11.07.2018 11:00:00 21,8 17,5 11 6 ONO 1012,7 10 0,0
11.07.2018 10:00:00 22,0 18,0 11 6 ONO - 10 -
11.07.2018 09:00:00 21,0 18,0 13 7 O - 10 -
11.07.2018 08:00:00 20,4 18,6 11 6 NNO 1012,4 7 -
11.07.2018 07:00:00 20,0 19,0 13 7 NNO - 10 -
11.07.2018 06:00:00 20,0 18,0 11 6 N - 10 -
11.07.2018 05:00:00 19,9 17,7 5 3 N 1011,0 10 0,0
11.07.2018 04:00:00 20,0 19,0 4 2 - - 10 -
11.07.2018 03:00:00 21,0 18,0 8 4 N - 10 -
11.07.2018 02:00:00 22,1 18,1 5 3 - 1010,7 10 -
11.07.2018 01:00:00 23,0 19,0 5 3 N - 10 -
11.07.2018 00:00:00 23,0 19,0 5 3 NNO - 10 -
10.07.2018 23:00:00 24,2 18,8 5 3 N 1010,9 10 0,0
10.07.2018 22:00:00 25,0 19,0 5 3 NNO - 10 -
10.07.2018 21:00:00 26,0 20,0 8 4 ONO - 10 -
10.07.2018 20:00:00 26,3 19,3 11 6 ONO 1010,3 10 -
10.07.2018 19:00:00 28,0 18,0 11 6 NNO - 10 -
10.07.2018 18:00:00 28,0 17,0 11 6 NO - 10 -
10.07.2018 17:00:00 27,7 16,5 9 5 - 1011,5 10 0,0
10.07.2018 16:00:00 27,0 17,0 9 5 NO - 10 -
10.07.2018 15:00:00 27,0 17,0 11 6 NO - 10 -
10.07.2018 14:00:00 26,8 16,2 9 5 O 1013,1 10 -
10.07.2018 13:00:00 26,0 15,0 11 6 ONO - 8 -
10.07.2018 12:00:00 25,0 16,0 13 7 NO - 10 -
10.07.2018 11:00:00 24,4 15,5 13 7 ONO 1014,5 15 0,0
10.07.2018 10:00:00 23,0 18,0 15 8 NO - 10 -
10.07.2018 09:00:00 23,0 19,0 9 5 NO - 10 -
10.07.2018 08:00:00 22,7 19,7 9 5 WNW 1014,7 10 -
10.07.2018 07:00:00 22,0 20,0 2 1 - - 10 -
10.07.2018 06:00:00 21,0 19,0 4 2 ZZW - 6 -
10.07.2018 05:00:00 22,4 18,8 4 2 - 1014,7 10 0,0
10.07.2018 04:00:00 23,0 19,0 5 3 N - 10 -
10.07.2018 03:00:00 24,0 18,0 8 4 NNW - 10 -
10.07.2018 02:00:00 22,5 18,3 9 5 N 1015,6 10 -
10.07.2018 01:00:00 23,0 18,0 5 3 N - 10 -

tt = temperatuur
td = dauwpunt
ff = windsnelheid
dd = windrichting
ppp = luchtdruk
vv = zicht
rr = neerslag

Weerstations in de omgeving